Sanford, NC

9:32 AM EDT on May 29, 2017 (GMT -0400)
Raleigh Executive Jetport

Weather History for KTTA - December, 2013

Change the Weather History Date:

Monday, December 9, 2013

  Actual Average (KHRJ) Record (KHRJ)
Temperature  
Mean Temperature 40 °F -  
Max Temperature 46 °F 58 °F 78 °F (1978)
Min Temperature 35 °F 35 °F 17 °F (2006)
Degree Days  
Heating Degree Days 24    
Moisture  
Dew Point 40 °F    
Average Humidity 98    
Maximum Humidity 100    
Minimum Humidity 97    
Precipitation  
Precipitation 0.16 in - - ()
Sea Level Pressure  
Sea Level Pressure 30.16 in    
Wind  
Wind Speed 1 mph (SW)    
Max Wind Speed 7 mph    
Max Gust Speed -    
Visibility 3 miles    
Events Rain    
Averages and records for this station are not official NWS values.
T = Trace of Precipitation, MM = Missing Value Source: NWS Daily Summary

Daily Weather History Graph

Daily Weather History Graph

Search for Another Location

Airport or City:

Trip Planner

Search our weather history database for the weather conditions in past years. The results will help you decide how hot, cold, wet, or windy it might be!

Date:

Astronomy

Dec. 09, 2013 Rise Set
Actual Time 7:14 AM EST 5:03 PM EST
Civil Twilight 6:46 AM EST 5:31 PM EST
Nautical Twilight 6:14 AM EST 6:03 PM EST
Astronomical Twilight 5:43 AM EST 6:34 PM EST
Moon 12:18 PM EST (12/9) No Moon Set
Length of Visible Light 10h 45m
Length of Day
9h 48m
Waxing Crescent, 51% of the Moon is Illuminated
Dec 9
Waxing Crescent
Dec 17
Full
Dec 25
Last Quarter
Jan 1
New
Jan 7
First Quarter

Hourly Weather History & Observations

Time (EST) Temp. Windchill Dew Point Humidity Pressure Visibility Wind Dir Wind Speed Gust Speed Precip Events Conditions
12:15 AM 35.6 °F 32.8 °F 34.7 °F 97% 30.29 in 5.0 mi NW 3.5 mph - N/A   Overcast
12:35 AM 35.6 °F 32.8 °F 34.7 °F 97% 30.28 in 7.0 mi North 3.5 mph - N/A   Overcast
12:55 AM 35.6 °F - 34.7 °F 97% 30.26 in 10.0 mi Calm Calm - N/A   Overcast
1:15 AM 35.6 °F - 34.7 °F 97% 30.24 in 10.0 mi Calm Calm - N/A   Overcast
1:35 AM 35.6 °F - 34.7 °F 97% 30.24 in 7.0 mi Calm Calm - N/A   Overcast
1:55 AM 35.6 °F - 35.1 °F 98% 30.24 in 4.0 mi Calm Calm - N/A   Overcast
2:15 AM 35.6 °F - 35.1 °F 98% 30.24 in 3.0 mi Calm Calm - N/A   Overcast
2:35 AM 35.6 °F - 35.1 °F 98% 30.25 in 1.8 mi Calm Calm - N/A   Overcast
2:55 AM 35.6 °F - 35.4 °F 99% 30.25 in 1.5 mi Calm Calm - N/A   Overcast
3:15 AM 35.6 °F - 35.2 °F 99% 30.24 in 1.2 mi Calm Calm - N/A   Overcast
3:35 AM 35.6 °F - 35.4 °F 99% 30.24 in 1.2 mi Calm Calm - N/A   Overcast
3:55 AM 35.6 °F - 35.6 °F 100% 30.24 in 1.5 mi Calm Calm - N/A   Overcast
4:15 AM 35.8 °F - 35.6 °F 99% 30.22 in 1.2 mi Calm Calm - N/A   Overcast
4:35 AM 35.6 °F - 35.6 °F 100% 30.21 in 1.2 mi Calm Calm - N/A   Overcast
4:55 AM 35.6 °F - 35.6 °F 100% 30.19 in 0.8 mi Calm Calm - N/A   Overcast
5:15 AM 35.6 °F - 35.6 °F 100% 30.18 in 1.0 mi Calm Calm - N/A   Overcast
5:35 AM 36.0 °F 33.3 °F 35.8 °F 99% 30.18 in 1.0 mi SSE 3.5 mph - N/A   Overcast
5:55 AM 36.0 °F 33.3 °F 35.8 °F 99% 30.20 in 1.5 mi West 3.5 mph - N/A   Overcast
6:15 AM 36.1 °F 33.5 °F 36.0 °F 99% 30.22 in 1.0 mi WNW 3.5 mph - N/A   Overcast
6:35 AM 36.1 °F - 36.0 °F 99% 30.21 in 1.5 mi Calm Calm - N/A   Overcast
6:55 AM 36.3 °F - 36.1 °F 99% 30.21 in 2.0 mi Calm Calm - N/A   Overcast
7:15 AM 36.1 °F - 36.0 °F 99% 30.20 in 2.0 mi Calm Calm - N/A   Overcast
7:35 AM 36.3 °F - 36.1 °F 99% 30.19 in 2.0 mi Calm Calm - N/A   Overcast
7:55 AM 36.7 °F - 36.5 °F 99% 30.19 in 1.5 mi Calm Calm - N/A   Overcast
8:15 AM 36.9 °F 34.3 °F 36.7 °F 99% 30.17 in 2.0 mi SSE 3.5 mph - N/A   Overcast
8:35 AM 37.4 °F - 37.0 °F 99% 30.18 in 2.5 mi Calm Calm - N/A   Overcast
8:55 AM 37.6 °F - 37.2 °F 99% 30.18 in 2.5 mi Calm Calm - N/A Rain Light Rain
9:15 AM 37.6 °F - 37.4 °F 99% 30.17 in 3.0 mi Calm Calm - N/A   Overcast
9:35 AM 38.3 °F 35.9 °F 37.9 °F 99% 30.20 in 4.0 mi West 3.5 mph - N/A   Overcast
9:55 AM 38.7 °F - 38.1 °F 98% 30.20 in 2.5 mi Calm Calm - N/A   Overcast
10:15 AM 38.5 °F - 37.9 °F 98% 30.20 in 1.2 mi Calm Calm - N/A   Overcast
10:35 AM 39.0 °F - 38.5 °F 98% 30.19 in 1.2 mi Calm Calm - N/A   Overcast
10:55 AM 39.2 °F - 38.7 °F 98% 30.19 in 1.2 mi Calm Calm - N/A   Overcast
11:15 AM 39.4 °F - 38.8 °F 98% 30.18 in 1.5 mi Calm Calm - 0.02 in Rain Heavy Rain
11:35 AM 39.6 °F 37.4 °F 39.2 °F 99% 30.15 in 1.5 mi SSE 3.5 mph - N/A Rain Rain
11:55 AM 40.5 °F 37.3 °F 40.1 °F 99% 30.15 in 2.5 mi South 4.6 mph - 0.01 in   Overcast
12:15 PM 41.0 °F - 40.1 °F 97% 30.14 in 3.0 mi Calm Calm - N/A   Overcast
12:35 PM 41.9 °F - 41.0 °F 97% 30.14 in 2.5 mi Calm Calm - N/A Rain Light Rain
12:55 PM 42.1 °F 40.2 °F 41.4 °F 97% 30.13 in 2.5 mi WNW 3.5 mph - N/A   Overcast
1:15 PM 42.6 °F 38.4 °F 41.9 °F 97% 30.14 in 2.5 mi WNW 6.9 mph - N/A   Overcast
1:35 PM 41.9 °F 39.0 °F 41.2 °F 97% 30.13 in 1.2 mi West 4.6 mph - N/A   Light Drizzle
1:55 PM 42.1 °F - 41.4 °F 97% 30.12 in 3.0 mi Calm Calm - N/A   Overcast
2:15 PM 42.6 °F 40.9 °F 41.9 °F 97% 30.11 in 1.5 mi SW 3.5 mph - N/A   Overcast
2:35 PM 42.8 °F 41.1 °F 42.1 °F 97% 30.10 in 1.5 mi WSW 3.5 mph - N/A   Overcast
2:55 PM 43.2 °F 41.5 °F 42.4 °F 97% 30.10 in 1.2 mi WSW 3.5 mph - 0.01 in Rain Light Rain
3:15 PM 43.3 °F - 42.8 °F 98% 30.10 in 4.0 mi Calm Calm - N/A   Light Drizzle
3:35 PM 43.9 °F - 43.2 °F 97% 30.09 in 5.0 mi Calm Calm - 0.01 in Rain Light Rain
3:55 PM 44.1 °F - 43.3 °F 97% 30.10 in 5.0 mi Calm Calm - 0.01 in   Overcast
4:15 PM 44.2 °F - 43.7 °F 98% 30.11 in 3.0 mi Calm Calm - N/A   Overcast
4:35 PM 44.6 °F - 43.7 °F 97% 30.11 in 4.0 mi Calm Calm - N/A   Overcast
4:55 PM 44.6 °F - 43.9 °F 97% 30.10 in 3.0 mi Calm Calm - N/A   Overcast
5:15 PM 44.6 °F - 43.9 °F 97% 30.09 in 2.5 mi Calm Calm - N/A Rain Rain
5:35 PM 44.6 °F 43.1 °F 44.1 °F 98% 30.10 in 1.8 mi SSE 3.5 mph - N/A Rain Light Rain
5:55 PM 44.8 °F - 44.2 °F 98% 30.11 in 3.0 mi Calm Calm - 0.01 in Rain Light Rain
6:15 PM 45.0 °F - 44.4 °F 98% 30.11 in 3.0 mi Calm Calm - N/A Rain Rain
6:35 PM 45.0 °F - 44.6 °F 99% 30.11 in 4.0 mi Calm Calm - 0.02 in Rain Rain
6:55 PM 45.0 °F - 44.6 °F 99% 30.11 in 5.0 mi Calm Calm - 0.03 in Rain Rain
7:15 PM 45.1 °F - 44.6 °F 98% 30.11 in 5.0 mi Calm Calm - 0.01 in Rain Rain
7:35 PM 45.5 °F - 45.0 °F 98% 30.12 in 5.0 mi Calm Calm - 0.02 in Rain Light Rain
7:55 PM 45.5 °F 44.2 °F 45.0 °F 98% 30.12 in 5.0 mi South 3.5 mph - 0.03 in Rain Light Rain
8:15 PM 45.5 °F 43.2 °F 45.0 °F 98% 30.12 in 3.0 mi South 4.6 mph - 0.03 in Rain Rain
8:35 PM 45.5 °F - 45.0 °F 98% 30.11 in 5.0 mi Calm Calm - 0.05 in Rain Rain
8:55 PM 45.7 °F - 45.1 °F 98% 30.10 in 5.0 mi Calm Calm - 0.05 in Rain Rain
9:15 PM 45.9 °F - 45.5 °F 99% 30.11 in 5.0 mi Calm Calm - N/A   Overcast
9:35 PM 46.0 °F - 45.5 °F 98% 30.11 in 7.0 mi Calm Calm - N/A   Light Drizzle
9:55 PM 46.4 °F - 45.7 °F 97% 30.11 in 7.0 mi Calm Calm - N/A   Overcast
10:15 PM 46.4 °F - 45.7 °F 97% 30.09 in 7.0 mi Calm Calm - N/A   Overcast
10:35 PM 46.6 °F - 46.0 °F 98% 30.10 in 7.0 mi Calm Calm - N/A   Overcast
10:55 PM 46.6 °F - 46.0 °F 98% 30.09 in 5.0 mi Calm Calm - N/A   Overcast
11:15 PM 46.8 °F - 46.2 °F 98% 30.09 in 7.0 mi Calm Calm - N/A   Overcast
11:35 PM 46.6 °F - 46.0 °F 98% 30.08 in 7.0 mi Calm Calm - N/A   Overcast
11:55 PM 46.8 °F - 46.4 °F 99% 30.08 in 7.0 mi Calm Calm - N/A   Overcast